Scott Air Force Base, IL

10:56 PM CST on February 08, 2016 (GMT -0600)
Scott Air Force Base-Midamerica

Weather History for KBLV - May, 2013

Change the Weather History Date:

Tuesday, May 14, 2013

  Actual Average Record
Temperature  
Mean Temperature 71 °F -  
Max Temperature 92 °F 76 °F 92 °F (2013)
Min Temperature 50 °F 52 °F 40 °F (1971)
Cooling Degree Days 6    
Growing Degree Days 21 (Base 50)    
Moisture  
Dew Point 52 °F    
Average Humidity 54    
Maximum Humidity 94    
Minimum Humidity 26    
Precipitation  
Precipitation 0.00 in - - ()
Sea Level Pressure  
Sea Level Pressure 29.90 in    
Wind  
Wind Speed 7 mph (SSW)    
Max Wind Speed 16 mph    
Max Gust Speed 24 mph    
Visibility 10 miles    
Events      
Averages and records for this station are not official NWS values.
T = Trace of Precipitation, MM = Missing Value Source: NWS Daily Summary

Daily Weather History Graph

Daily Weather History Graph

Search for Another Location

Airport or City:

Trip Planner

Search our weather history database for the weather conditions in past years. The results will help you decide how hot, cold, wet, or windy it might be!

Date:

Astronomy

May. 14, 2013 Rise Set
Actual Time 5:48 AM CDT 8:03 PM CDT
Civil Twilight 5:18 AM CDT 8:33 PM CDT
Nautical Twilight 4:42 AM CDT 9:10 PM CDT
Astronomical Twilight 4:02 AM CDT 9:50 PM CDT
Moon 9:27 AM CDT (5/14) 11:51 PM CDT (5/14)
Length of Visible Light 15h 14m
Length of Day
14h 15m
Waxing Crescent, 19% of the Moon is Illuminated
May 14
Waxing Crescent
May 17
First Quarter
May 24
Full
May 31
Last Quarter
Jun 8
New

Hourly Weather History & Observations

Time (CDT) Temp. Heat Index Dew Point Humidity Pressure Visibility Wind Dir Wind Speed Gust Speed Precip Events Conditions
12:58 AM 55.6 °F - 45.0 °F 67% 30.04 in 10.0 mi SSE 3.5 mph - N/A   Clear
1:58 AM 52.5 °F - 45.9 °F 78% 30.02 in 10.0 mi SSE 4.6 mph - N/A   Clear
2:58 AM 52.3 °F - 48.0 °F 85% 30.00 in 10.0 mi SE 4.6 mph - N/A   Clear
3:58 AM 53.2 °F - 46.6 °F 78% 29.98 in 10.0 mi SSE 3.5 mph - N/A   Clear
4:58 AM 52.7 °F - 47.8 °F 84% 29.98 in 10.0 mi SSE 3.5 mph - N/A   Clear
5:58 AM 50.2 °F - 48.4 °F 94% 29.97 in 10.0 mi SSE 4.6 mph - N/A   Clear
6:58 AM 54.1 °F - 52.5 °F 94% 29.97 in 10.0 mi South 4.6 mph - N/A   Clear
7:58 AM 61.7 °F - 54.0 °F 76% 29.96 in 10.0 mi South 9.2 mph - N/A   Clear
8:58 AM 67.8 °F - 54.9 °F 63% 29.94 in 10.0 mi SW 9.2 mph - N/A   Clear
9:58 AM 73.4 °F - 57.7 °F 58% 29.92 in 10.0 mi SSW 8.1 mph - N/A   Clear
10:58 AM 79.5 °F - 58.3 °F 48% 29.91 in 10.0 mi SW 11.5 mph - N/A   Clear
11:58 AM 82.8 °F 82.4 °F 57.2 °F 42% 29.91 in 10.0 mi SW 11.5 mph - N/A   Clear
12:58 PM 86.0 °F 84.9 °F 57.0 °F 37% 29.88 in 10.0 mi WSW 12.7 mph 20.7 mph N/A   Clear
1:58 PM 88.7 °F 86.9 °F 55.0 °F 32% 29.86 in 10.0 mi SW 11.5 mph 19.6 mph N/A   Clear
2:58 PM 91.4 °F 89.4 °F 55.0 °F 29% 29.85 in 10.0 mi SW 13.8 mph 20.7 mph N/A   Clear
3:58 PM 92.3 °F - 52.9 °F 26% 29.83 in 10.0 mi WSW 15.0 mph 20.7 mph N/A   Clear
4:58 PM 92.3 °F 89.7 °F 53.1 °F 26% 29.83 in 10.0 mi WSW 16.1 mph 24.2 mph N/A   Clear
5:58 PM 91.2 °F 88.7 °F 53.1 °F 27% 29.81 in 10.0 mi WSW 11.5 mph - N/A   Clear
6:58 PM 88.2 °F 86.1 °F 54.3 °F 31% 29.81 in 10.0 mi West 15.0 mph 21.9 mph N/A   Clear
7:58 PM 83.1 °F - 52.7 °F 35% 29.82 in 10.0 mi WSW 6.9 mph - N/A   Clear
8:58 PM 78.3 °F - 52.3 °F 40% 29.83 in 10.0 mi WSW 4.6 mph - N/A   Clear
9:58 PM 76.1 °F - 50.9 °F 41% 29.86 in 10.0 mi SW 5.8 mph - N/A   Clear
10:58 PM 73.8 °F - 51.6 °F 46% 29.86 in 10.0 mi WSW 5.8 mph - N/A   Clear
11:58 PM 69.3 °F - 52.5 °F 55% 29.87 in 10.0 mi SW 3.5 mph - N/A   Clear